Mazar-I-Sharif, Afghanistan

12:38 AM AFT on April 24, 2018 (GMT +0430)
Mazar

Weather History for OAMS - April, 2014

Change the Weather History Date:

Saturday, April 26, 2014

  Actual Average Record
Temperature  
Mean Temperature 70 °F -  
Max Temperature 80 °F 86 °F - ()
Min Temperature 59 °F 61 °F - ()
Cooling Degree Days 4    
Growing Degree Days 20 (Base 50)    
Moisture  
Dew Point 47 °F    
Average Humidity 40    
Maximum Humidity 65    
Minimum Humidity 20    
Precipitation  
Precipitation 0.00 in 0.02 in - ()
Sea Level Pressure  
Sea Level Pressure 30.09 in    
Wind  
Wind Speed 9 mph ()    
Max Wind Speed 21 mph    
Max Gust Speed -    
Visibility 9.0 miles    
Events      
T = Trace of Precipitation, MM = Missing Value Source: Averaged Metar Reports

Daily Weather History Graph

Daily Weather History Graph

Search for Another Location

Airport or City:

Astronomy

Apr. 26, 2014 Rise Set
Actual Time 5:13 AM AFT 6:44 PM AFT
Civil Twilight 4:46 AM AFT 7:12 PM AFT
Nautical Twilight 4:13 AM AFT 7:45 PM AFT
Astronomical Twilight 3:39 AM AFT 8:20 PM AFT
Moon 3:16 AM AFT (4/26) 3:49 PM AFT (4/26)
Length of Visible Light 14h 25m
Length of Day
13h 31m
Waning Crescent, 10% of the Moon is Illuminated
Apr 26
Waning Crescent
Apr 29
New
May 7
First Quarter
May 14
Full
May 21
Last Quarter

Hourly Weather History & Observations

Time (AFT) Temp. Dew Point Humidity Pressure Visibility Wind Dir Wind Speed Gust Speed Precip Events Conditions
12:20 AM 64.4 °F 51.8 °F 64% 30.18 in 6.2 mi SW 9.2 mph - N/A   Clear
12:30 AM 64 °F 51 °F 54% 30.16 in 12 mi SW 8.9 mph - -  
1:20 AM 64.4 °F 50.0 °F 59% 30.15 in 6.2 mi SW 10.4 mph - N/A   Unknown
1:30 AM 64 °F 51 °F 52% 30.15 in 12 mi SW 11.2 mph - -  
2:20 AM 62.6 °F 48.2 °F 59% 30.15 in 6.2 mi SW 9.2 mph - N/A   Clear
2:30 AM 63 °F 48 °F 47% 30.14 in 12 mi SW 8.9 mph - -  
3:20 AM 62.6 °F 48.2 °F 59% 30.15 in 6.2 mi SSW 4.6 mph - N/A   Unknown
3:30 AM 63 °F 47 °F 46% 30.15 in 12 mi SSW 4.5 mph - -  
4:20 AM 62.6 °F 44.6 °F 52% 30.15 in 6.2 mi SSW 5.8 mph - N/A   Partly Cloudy
4:30 AM 60 °F 51 °F 65% 29.98 in 12 mi WSW 4.5 mph - -   Clear
5:20 AM 59.0 °F 46.4 °F 63% 30.15 in 6.2 mi South 3.5 mph - N/A   Partly Cloudy
5:30 AM 60 °F 46 °F 49% 30.16 in 12 mi South 4.5 mph - -   Scattered Clouds
6:20 AM 62.6 °F 46.4 °F 55% 30.15 in 6.2 mi SSE 3.5 mph - N/A   Partly Cloudy
6:30 AM 62 °F 46 °F 45% 30.15 in 12 mi SSE 4.5 mph - -   Scattered Clouds
7:20 AM 68.0 °F 46.4 °F 46% 30.18 in 6.2 mi Variable 1.2 mph - N/A   Partly Cloudy
7:30 AM 68 °F 46 °F 34% 30.15 in 12 mi 2.2 mph - -   Scattered Clouds
8:20 AM 68.0 °F 48.2 °F 49% 30.18 in 6.2 mi ENE 11.5 mph - N/A   Partly Cloudy
8:30 AM 68 °F 48 °F 38% 30.16 in 12 mi ENE 11.2 mph - -   Scattered Clouds
9:20 AM 69.8 °F 50.0 °F 49% 30.18 in 6.2 mi NE 10.4 mph - N/A   Partly Cloudy
9:30 AM 69 °F 50 °F 40% 30.16 in 12 mi NE 11.2 mph - -   Scattered Clouds
10:20 AM 71.6 °F 46.4 °F 41% 30.18 in 6.2 mi ENE 11.5 mph - N/A   Partly Cloudy
11:20 AM 73.4 °F 44.6 °F 36% 30.15 in 6.2 mi NE 10.4 mph - N/A   Partly Cloudy
11:30 AM 74 °F 45 °F 25% 30.11 in 12 mi NE 11.2 mph - -   Scattered Clouds
12:20 PM 75.2 °F 44.6 °F 34% 30.12 in 6.2 mi ENE 12.7 mph - N/A   Partly Cloudy
12:30 PM 75 °F 45 °F 24% 30.08 in 12 mi ENE 13.4 mph - -   Scattered Clouds
1:20 PM 77.0 °F 46.4 °F 34% 30.09 in 6.2 mi ENE 13.8 mph - N/A   Partly Cloudy
1:30 PM 77 °F 47 °F 24% 30.05 in 12 mi ENE 13.4 mph - -   Scattered Clouds
2:20 PM 78.8 °F 46.4 °F 32% 30.06 in 6.2 mi ENE 17.3 mph - N/A   Partly Cloudy
3:20 PM 78.8 °F 46.4 °F 32% 30.04 in 6.2 mi ENE 18.4 mph - N/A   Partly Cloudy
3:30 PM 79 °F 46 °F 20% 29.99 in 12 mi ENE 17.9 mph - -   Scattered Clouds
4:20 PM 78.8 °F 44.6 °F 30% 30.04 in 6.2 mi ENE 18.4 mph - N/A   Partly Cloudy
4:30 PM 79 °F 45 °F 20% 29.98 in 12 mi ENE 17.9 mph - -   Scattered Clouds
5:20 PM 77.0 °F 46.4 °F 34% 30.04 in 6.2 mi ENE 20.7 mph - N/A   Partly Cloudy
5:30 PM 78 °F 46 °F 21% 29.97 in 12 mi ENE 20.1 mph - -   Scattered Clouds
6:20 PM 75.2 °F 46.4 °F 36% 30.01 in 6.2 mi ENE 18.4 mph - N/A   Mostly Cloudy
6:30 PM 76 °F 46 °F 24% 29.97 in 12 mi ENE 17.9 mph - -   Scattered Clouds
7:20 PM 73.4 °F 46.4 °F 38% 30.04 in 6.2 mi East 13.8 mph - N/A   Partly Cloudy
7:30 PM 73 °F 47 °F 28% 29.99 in 12 mi East 13.4 mph - -   Clear
8:20 PM 71.6 °F 46.4 °F 41% 30.04 in 6.2 mi East 15.0 mph - N/A   Partly Cloudy
8:30 PM 72 °F 47 °F 29% 29.99 in 12 mi East 15.7 mph - -   Clear
9:20 PM 71.6 °F 48.2 °F 43% 30.04 in 6.2 mi East 13.8 mph - N/A   Partly Cloudy
9:30 PM 71 °F 47 °F 32% 30.00 in 12 mi East 13.4 mph - -   Clear
10:20 PM 69.8 °F 48.2 °F 46% 30.04 in 6.2 mi ENE 11.5 mph - N/A   Partly Cloudy
10:30 PM 70 °F 47 °F 33% 30.00 in 12 mi ENE 11.2 mph - -   Clear
11:20 PM 69.8 °F 48.2 °F 46% 30.04 in 6.2 mi East 11.5 mph - N/A   Clear
11:30 PM 69 °F 47 °F 35% 29.99 in 12 mi East 11.2 mph - -